Year,Month,Day,Hour,Minute,Value (Times are PST for temperature in C)
2015,04,06,00,00,5.00
2015,04,06,00,01,4.90
2015,04,06,00,02,4.90
2015,04,06,00,03,4.90
2015,04,06,00,04,4.80
2015,04,06,00,05,4.80
2015,04,06,00,06,4.80
2015,04,06,00,07,4.80
2015,04,06,00,08,4.80
2015,04,06,00,09,4.80
2015,04,06,00,10,4.80
2015,04,06,00,11,4.80
2015,04,06,00,12,4.90
2015,04,06,00,13,4.90
2015,04,06,00,14,4.90
2015,04,06,00,15,4.90
2015,04,06,00,16,4.90
2015,04,06,00,17,4.90
2015,04,06,00,18,4.90
2015,04,06,00,19,4.80
2015,04,06,00,20,4.80
2015,04,06,00,21,4.80
2015,04,06,00,22,4.70
2015,04,06,00,23,4.70
2015,04,06,00,24,4.70
2015,04,06,00,25,4.70
2015,04,06,00,26,4.60
2015,04,06,00,27,4.60
2015,04,06,00,28,4.50
2015,04,06,00,29,4.50
2015,04,06,00,30,4.40
2015,04,06,00,31,4.40
2015,04,06,00,32,4.40
2015,04,06,00,33,4.30
2015,04,06,00,34,4.30
2015,04,06,00,35,4.30
2015,04,06,00,36,4.30
2015,04,06,00,37,4.30
2015,04,06,00,38,4.20
2015,04,06,00,39,4.20
2015,04,06,00,40,4.20
2015,04,06,00,41,4.20
2015,04,06,00,42,4.10
2015,04,06,00,43,4.10
2015,04,06,00,44,4.10
2015,04,06,00,45,4.10
2015,04,06,00,46,4.00
2015,04,06,00,47,4.00
2015,04,06,00,48,4.00
2015,04,06,00,49,3.90
2015,04,06,00,50,3.90
2015,04,06,00,51,3.90
2015,04,06,00,52,3.90
2015,04,06,00,53,3.90
2015,04,06,00,54,3.80
2015,04,06,00,55,3.80
2015,04,06,00,56,3.80
2015,04,06,00,57,3.80
2015,04,06,00,58,3.80
2015,04,06,00,59,3.80
2015,04,06,01,00,3.80
2015,04,06,01,01,3.70
2015,04,06,01,02,3.70
2015,04,06,01,03,3.70
2015,04,06,01,04,3.70
2015,04,06,01,05,3.70
2015,04,06,01,06,3.60
2015,04,06,01,07,3.60
2015,04,06,01,08,3.60
2015,04,06,01,09,3.60
2015,04,06,01,10,3.60
2015,04,06,01,11,3.60
2015,04,06,01,12,3.60
2015,04,06,01,13,3.60
2015,04,06,01,14,3.60
2015,04,06,01,15,3.50
2015,04,06,01,16,3.50
2015,04,06,01,17,3.50
2015,04,06,01,18,3.50
2015,04,06,01,19,3.50
2015,04,06,01,20,3.50
2015,04,06,01,21,3.50
2015,04,06,01,22,3.50
2015,04,06,01,23,3.50
2015,04,06,01,24,3.40
2015,04,06,01,25,3.40
2015,04,06,01,26,3.40
2015,04,06,01,27,3.40
2015,04,06,01,28,3.40
2015,04,06,01,29,3.40
2015,04,06,01,30,3.40
2015,04,06,01,31,3.40
2015,04,06,01,32,3.40
2015,04,06,01,33,3.40
2015,04,06,01,34,3.40
2015,04,06,01,35,3.40
2015,04,06,01,36,3.40
2015,04,06,01,37,3.30
2015,04,06,01,38,3.30
2015,04,06,01,39,3.30
2015,04,06,01,40,3.30
2015,04,06,01,41,3.30
2015,04,06,01,42,3.30
2015,04,06,01,43,3.30
2015,04,06,01,44,3.30
2015,04,06,01,45,3.30
2015,04,06,01,46,3.30
2015,04,06,01,47,3.30
2015,04,06,01,48,3.30
2015,04,06,01,49,3.30
2015,04,06,01,50,3.20
2015,04,06,01,51,3.20
2015,04,06,01,52,3.20
2015,04,06,01,53,3.20
2015,04,06,01,54,3.20
2015,04,06,01,55,3.20
2015,04,06,01,56,3.20
2015,04,06,01,57,3.10
2015,04,06,01,58,3.10
2015,04,06,01,59,3.10
2015,04,06,02,00,3.10
2015,04,06,02,01,3.00
2015,04,06,02,02,3.00
2015,04,06,02,03,3.00
2015,04,06,02,04,3.00
2015,04,06,02,05,3.00
2015,04,06,02,06,2.90
2015,04,06,02,07,2.90
2015,04,06,02,08,2.90
2015,04,06,02,09,2.90
2015,04,06,02,10,2.90
2015,04,06,02,11,2.90
2015,04,06,02,12,2.90
2015,04,06,02,13,2.90
2015,04,06,02,14,2.80
2015,04,06,02,15,2.80
2015,04,06,02,16,2.80
2015,04,06,02,17,2.80
2015,04,06,02,18,2.80
2015,04,06,02,19,2.80
2015,04,06,02,20,2.80
2015,04,06,02,21,2.80
2015,04,06,02,22,2.80
2015,04,06,02,23,2.80
2015,04,06,02,24,2.70
2015,04,06,02,25,2.70
2015,04,06,02,26,2.70
2015,04,06,02,27,2.70
2015,04,06,02,28,2.70
2015,04,06,02,29,2.70
2015,04,06,02,30,2.70
2015,04,06,02,31,2.70
2015,04,06,02,32,2.70
2015,04,06,02,33,2.70
2015,04,06,02,34,2.70
2015,04,06,02,35,2.70
2015,04,06,02,36,2.70
2015,04,06,02,37,2.70
2015,04,06,02,38,2.70
2015,04,06,02,39,2.70
2015,04,06,02,40,2.60
2015,04,06,02,41,2.60
2015,04,06,02,42,2.60
2015,04,06,02,43,2.60
2015,04,06,02,44,2.60
2015,04,06,02,45,2.60
2015,04,06,02,46,2.60
2015,04,06,02,47,2.60
2015,04,06,02,48,2.60
2015,04,06,02,49,2.60
2015,04,06,02,50,2.60
2015,04,06,02,51,2.50
2015,04,06,02,52,2.50
2015,04,06,02,53,2.50
2015,04,06,02,54,2.50
2015,04,06,02,55,2.50
2015,04,06,02,56,2.40
2015,04,06,02,57,2.50
2015,04,06,02,58,2.40
2015,04,06,02,59,2.40
2015,04,06,03,00,2.40
2015,04,06,03,01,2.40
2015,04,06,03,02,2.40
2015,04,06,03,03,2.40
2015,04,06,03,04,2.40
2015,04,06,03,05,2.40
2015,04,06,03,06,2.40
2015,04,06,03,07,2.40
2015,04,06,03,08,2.40
2015,04,06,03,09,2.40
2015,04,06,03,10,2.40
2015,04,06,03,11,2.30
2015,04,06,03,12,2.30
2015,04,06,03,13,2.30
2015,04,06,03,14,2.30
2015,04,06,03,15,2.30
2015,04,06,03,16,2.30
2015,04,06,03,17,2.30
2015,04,06,03,18,2.30
2015,04,06,03,19,2.30
2015,04,06,03,20,2.30
2015,04,06,03,21,2.30
2015,04,06,03,22,2.30
2015,04,06,03,23,2.30
2015,04,06,03,24,2.30
2015,04,06,03,25,2.30
2015,04,06,03,26,2.30
2015,04,06,03,27,2.30
2015,04,06,03,28,2.30
2015,04,06,03,29,2.30
2015,04,06,03,30,2.30
2015,04,06,03,31,2.30
2015,04,06,03,32,2.30
2015,04,06,03,33,2.20
2015,04,06,03,34,2.20
2015,04,06,03,35,2.20
2015,04,06,03,36,2.20
2015,04,06,03,37,2.20
2015,04,06,03,38,2.20
2015,04,06,03,39,2.20
2015,04,06,03,40,2.20
2015,04,06,03,41,2.20
2015,04,06,03,42,2.20
2015,04,06,03,43,2.20
2015,04,06,03,44,2.20
2015,04,06,03,45,2.20
2015,04,06,03,46,2.20
2015,04,06,03,47,2.10
2015,04,06,03,48,2.10
2015,04,06,03,49,2.10
2015,04,06,03,50,2.10
2015,04,06,03,51,2.10
2015,04,06,03,52,2.10
2015,04,06,03,53,2.10
2015,04,06,03,54,2.10
2015,04,06,03,55,2.00
2015,04,06,03,56,2.00
2015,04,06,03,57,2.00
2015,04,06,03,58,1.90
2015,04,06,03,59,1.90
2015,04,06,04,00,1.90
2015,04,06,04,01,1.80
2015,04,06,04,02,1.80
2015,04,06,04,03,1.80
2015,04,06,04,04,1.80
2015,04,06,04,05,1.80
2015,04,06,04,06,1.80
2015,04,06,04,07,1.70
2015,04,06,04,08,1.70
2015,04,06,04,09,1.70
2015,04,06,04,10,1.70
2015,04,06,04,11,1.70
2015,04,06,04,12,1.70
2015,04,06,04,13,1.70
2015,04,06,04,14,1.70
2015,04,06,04,15,1.70
2015,04,06,04,16,1.70
2015,04,06,04,17,1.70
2015,04,06,04,18,1.70
2015,04,06,04,19,1.70
2015,04,06,04,20,1.70
2015,04,06,04,21,1.70
2015,04,06,04,22,1.70
2015,04,06,04,23,1.70
2015,04,06,04,24,1.70
2015,04,06,04,25,1.70
2015,04,06,04,26,1.70
2015,04,06,04,27,1.70
2015,04,06,04,28,1.70
2015,04,06,04,29,1.70
2015,04,06,04,30,1.70
2015,04,06,04,31,1.70
2015,04,06,04,32,1.70
2015,04,06,04,33,1.70
2015,04,06,04,34,1.70
2015,04,06,04,35,1.70
2015,04,06,04,36,1.70
2015,04,06,04,37,1.70
2015,04,06,04,38,1.70
2015,04,06,04,39,1.70
2015,04,06,04,40,1.60
2015,04,06,04,41,1.60
2015,04,06,04,42,1.60
2015,04,06,04,43,1.60
2015,04,06,04,44,1.60
2015,04,06,04,45,1.60
2015,04,06,04,46,1.60
2015,04,06,04,47,1.60
2015,04,06,04,48,1.60
2015,04,06,04,49,1.60
2015,04,06,04,50,1.60
2015,04,06,04,51,1.60
2015,04,06,04,52,1.60
2015,04,06,04,53,1.60
2015,04,06,04,54,1.60
2015,04,06,04,55,1.50
2015,04,06,04,56,1.50
2015,04,06,04,57,1.50
2015,04,06,04,58,1.50
2015,04,06,04,59,1.50
2015,04,06,05,00,1.40
2015,04,06,05,01,1.40
2015,04,06,05,02,1.40
2015,04,06,05,03,1.40
2015,04,06,05,04,1.40
2015,04,06,05,05,1.40
2015,04,06,05,06,1.40
2015,04,06,05,07,1.40
2015,04,06,05,08,1.40
2015,04,06,05,09,1.40
2015,04,06,05,10,1.30
2015,04,06,05,11,1.30
2015,04,06,05,12,1.30
2015,04,06,05,13,1.30
2015,04,06,05,14,1.30
2015,04,06,05,15,1.40
2015,04,06,05,16,1.40
2015,04,06,05,17,1.40
2015,04,06,05,18,1.40
2015,04,06,05,19,1.40
2015,04,06,05,20,1.40
2015,04,06,05,21,1.40
2015,04,06,05,22,1.40
2015,04,06,05,23,1.40
2015,04,06,05,24,1.40
2015,04,06,05,25,1.40
2015,04,06,05,26,1.40
2015,04,06,05,27,1.40
2015,04,06,05,28,1.40
2015,04,06,05,29,1.40
2015,04,06,05,30,1.40
2015,04,06,05,31,1.40
2015,04,06,05,32,1.30
2015,04,06,05,33,1.30
2015,04,06,05,34,1.30
2015,04,06,05,35,1.30
2015,04,06,05,36,1.30
2015,04,06,05,37,1.30
2015,04,06,05,38,1.30
2015,04,06,05,39,1.30
2015,04,06,05,40,1.30
2015,04,06,05,41,1.30
2015,04,06,05,42,1.30
2015,04,06,05,43,1.30
2015,04,06,05,44,1.20
2015,04,06,05,45,1.20
2015,04,06,05,46,1.20
2015,04,06,05,47,1.20
2015,04,06,05,48,1.10
2015,04,06,05,49,1.10
2015,04,06,05,50,1.10
2015,04,06,05,51,1.10
2015,04,06,05,52,1.00
2015,04,06,05,53,1.00
2015,04,06,05,54,1.00
2015,04,06,05,55,1.00
2015,04,06,05,56,1.00
2015,04,06,05,57,1.00
2015,04,06,05,58,1.00
2015,04,06,05,59,1.00
2015,04,06,06,00,1.00
2015,04,06,06,01,0.90
2015,04,06,06,02,0.90
2015,04,06,06,03,0.90
2015,04,06,06,04,0.90
2015,04,06,06,05,0.90
2015,04,06,06,06,0.90
2015,04,06,06,07,0.90
2015,04,06,06,08,0.90
2015,04,06,06,09,0.90
2015,04,06,06,10,0.90
2015,04,06,06,11,0.90
2015,04,06,06,12,0.90
2015,04,06,06,13,0.90
2015,04,06,06,14,0.90
2015,04,06,06,15,0.90
2015,04,06,06,16,0.90
2015,04,06,06,17,0.90
2015,04,06,06,18,0.90
2015,04,06,06,19,0.90
2015,04,06,06,20,0.90
2015,04,06,06,21,0.90
2015,04,06,06,22,0.90
2015,04,06,06,23,0.80
2015,04,06,06,24,0.80
2015,04,06,06,25,0.80
2015,04,06,06,26,0.80
2015,04,06,06,27,0.80
2015,04,06,06,28,0.80
2015,04,06,06,29,0.80
2015,04,06,06,30,0.80
2015,04,06,06,31,0.80
2015,04,06,06,32,0.80
2015,04,06,06,33,0.70
2015,04,06,06,34,0.70
2015,04,06,06,35,0.70
2015,04,06,06,36,0.70
2015,04,06,06,37,0.70
2015,04,06,06,38,0.70
2015,04,06,06,39,0.70
2015,04,06,06,40,0.70
2015,04,06,06,41,0.70
2015,04,06,06,42,0.70
2015,04,06,06,43,0.70
2015,04,06,06,44,0.70
2015,04,06,06,45,0.70
2015,04,06,06,46,0.70
2015,04,06,06,47,0.70
2015,04,06,06,48,0.70
2015,04,06,06,49,0.70
2015,04,06,06,50,0.70
2015,04,06,06,51,0.70
2015,04,06,06,52,0.70
2015,04,06,06,53,0.70
2015,04,06,06,54,0.70
2015,04,06,06,55,0.70
2015,04,06,06,56,0.70
2015,04,06,06,57,0.70
2015,04,06,06,58,0.70
2015,04,06,06,59,0.70
2015,04,06,07,00,0.70
2015,04,06,07,01,0.70
2015,04,06,07,02,0.70
2015,04,06,07,03,0.70
2015,04,06,07,04,0.70
2015,04,06,07,05,0.70
2015,04,06,07,06,0.70
2015,04,06,07,07,0.70
2015,04,06,07,08,0.70
2015,04,06,07,09,0.70
2015,04,06,07,10,0.70
2015,04,06,07,11,0.70
2015,04,06,07,12,0.70
2015,04,06,07,13,0.80
2015,04,06,07,14,0.80
2015,04,06,07,15,0.80
2015,04,06,07,16,0.80
2015,04,06,07,17,0.80
2015,04,06,07,18,0.80
2015,04,06,07,19,0.80
2015,04,06,07,20,0.80
2015,04,06,07,21,0.80
2015,04,06,07,22,0.80
2015,04,06,07,23,0.80
2015,04,06,07,24,0.80
2015,04,06,07,25,0.80
2015,04,06,07,26,0.90
2015,04,06,07,27,0.90
2015,04,06,07,28,0.90
2015,04,06,07,29,0.90
2015,04,06,07,30,0.90
2015,04,06,07,31,0.90
2015,04,06,07,32,1.00
2015,04,06,07,33,1.00
2015,04,06,07,34,1.00
2015,04,06,07,35,1.10
2015,04,06,07,36,1.10
2015,04,06,07,37,1.10
2015,04,06,07,38,1.10
2015,04,06,07,39,1.10
2015,04,06,07,40,1.20
2015,04,06,07,41,1.20
2015,04,06,07,42,1.20
2015,04,06,07,43,1.30
2015,04,06,07,44,1.30
2015,04,06,07,45,1.30
2015,04,06,07,46,1.30
2015,04,06,07,47,1.40
2015,04,06,07,48,1.40
2015,04,06,07,49,1.40
2015,04,06,07,50,1.50
2015,04,06,07,51,1.50
2015,04,06,07,52,1.60
2015,04,06,07,53,1.60
2015,04,06,07,54,1.70
2015,04,06,07,55,1.70
2015,04,06,07,56,1.70
2015,04,06,07,57,1.70
2015,04,06,07,58,1.80
2015,04,06,07,59,1.80
2015,04,06,08,00,1.80
2015,04,06,08,01,1.80
2015,04,06,08,02,1.90
2015,04,06,08,03,1.90
2015,04,06,08,04,2.00
2015,04,06,08,05,2.00
2015,04,06,08,06,2.10
2015,04,06,08,07,2.10
2015,04,06,08,08,2.20
2015,04,06,08,09,2.20
2015,04,06,08,10,2.20
2015,04,06,08,11,2.30
2015,04,06,08,12,2.30
2015,04,06,08,13,2.40
2015,04,06,08,14,2.40
2015,04,06,08,15,2.50
2015,04,06,08,16,2.50
2015,04,06,08,17,2.60
2015,04,06,08,18,2.70
2015,04,06,08,19,2.70
2015,04,06,08,20,2.80
2015,04,06,08,21,2.80
2015,04,06,08,22,2.90
2015,04,06,08,23,2.90
2015,04,06,08,24,3.00
2015,04,06,08,25,3.00
2015,04,06,08,26,3.10
2015,04,06,08,27,3.20
2015,04,06,08,28,3.20
2015,04,06,08,29,3.30
2015,04,06,08,30,3.40
2015,04,06,08,31,3.40
2015,04,06,08,32,3.50
2015,04,06,08,33,3.50
2015,04,06,08,34,3.60
2015,04,06,08,35,3.70
2015,04,06,08,36,3.70
2015,04,06,08,37,3.80
2015,04,06,08,38,3.80
2015,04,06,08,39,3.90
2015,04,06,08,40,4.00
2015,04,06,08,41,4.10
2015,04,06,08,42,4.20
2015,04,06,08,43,4.30
2015,04,06,08,44,4.30
2015,04,06,08,45,4.40
2015,04,06,08,46,4.40
2015,04,06,08,47,4.50
2015,04,06,08,48,4.50
2015,04,06,08,49,4.50
2015,04,06,08,50,4.60
2015,04,06,08,51,4.60
2015,04,06,08,52,4.60
2015,04,06,08,53,4.60
2015,04,06,08,54,4.70
2015,04,06,08,55,4.70
2015,04,06,08,56,4.70
2015,04,06,08,57,4.80
2015,04,06,08,58,4.80
2015,04,06,08,59,4.80
2015,04,06,09,00,4.90
2015,04,06,09,01,4.90
2015,04,06,09,02,5.00
2015,04,06,09,03,5.00
2015,04,06,09,04,5.10
2015,04,06,09,05,5.20
2015,04,06,09,06,5.20
2015,04,06,09,07,5.30
2015,04,06,09,08,5.30
2015,04,06,09,09,5.40
2015,04,06,09,10,5.50
2015,04,06,09,11,5.50
2015,04,06,09,12,5.60
2015,04,06,09,13,5.70
2015,04,06,09,14,5.90
2015,04,06,09,15,6.00
2015,04,06,09,16,6.10
2015,04,06,09,17,6.30
2015,04,06,09,18,6.40
2015,04,06,09,19,6.50
2015,04,06,09,20,6.60
2015,04,06,09,21,6.80
2015,04,06,09,22,6.90
2015,04,06,09,23,7.00
2015,04,06,09,24,7.10
2015,04,06,09,25,7.20
2015,04,06,09,26,7.30
2015,04,06,09,27,7.40
2015,04,06,09,28,7.50
2015,04,06,09,29,7.50
2015,04,06,09,30,7.60
2015,04,06,09,31,7.70
2015,04,06,09,32,7.80
2015,04,06,09,33,7.90
2015,04,06,09,34,8.00
2015,04,06,09,35,8.10
2015,04,06,09,36,8.10
2015,04,06,09,37,8.20
2015,04,06,09,38,8.30
2015,04,06,09,39,8.40
2015,04,06,09,40,8.40
2015,04,06,09,41,8.50
2015,04,06,09,42,8.60
2015,04,06,09,43,8.60
2015,04,06,09,44,8.70
2015,04,06,09,45,8.70
2015,04,06,09,46,8.80
2015,04,06,09,47,8.80
2015,04,06,09,48,8.80
2015,04,06,09,49,8.90
2015,04,06,09,50,8.90
2015,04,06,09,51,8.90
2015,04,06,09,52,9.00
2015,04,06,09,53,9.00
2015,04,06,09,54,9.10
2015,04,06,09,55,9.10
2015,04,06,09,56,9.20
2015,04,06,09,57,9.20
2015,04,06,09,58,9.20
2015,04,06,09,59,9.30
2015,04,06,10,00,9.30
2015,04,06,10,01,9.30
2015,04,06,10,02,9.40
2015,04,06,10,03,9.40
2015,04,06,10,04,9.40
2015,04,06,10,05,9.40
2015,04,06,10,06,9.40
2015,04,06,10,07,9.40
2015,04,06,10,08,9.50
2015,04,06,10,09,9.50
2015,04,06,10,10,9.50
2015,04,06,10,11,9.60
2015,04,06,10,12,9.70
2015,04,06,10,13,9.70
2015,04,06,10,14,9.80
2015,04,06,10,15,9.90
2015,04,06,10,16,10.00
2015,04,06,10,17,10.10
2015,04,06,10,18,10.10
2015,04,06,10,19,10.20
2015,04,06,10,20,10.30
2015,04,06,10,21,10.30
2015,04,06,10,22,10.40
2015,04,06,10,23,10.40
2015,04,06,10,24,10.50
2015,04,06,10,25,10.50
2015,04,06,10,26,10.50
2015,04,06,10,27,10.60
2015,04,06,10,28,10.60
2015,04,06,10,29,10.60
2015,04,06,10,30,10.60
2015,04,06,10,31,10.60
2015,04,06,10,32,10.60
2015,04,06,10,33,10.60
2015,04,06,10,34,10.60
2015,04,06,10,35,10.60
2015,04,06,10,36,10.60
2015,04,06,10,37,10.60
2015,04,06,10,38,10.60
2015,04,06,10,39,10.60
2015,04,06,10,40,10.70
2015,04,06,10,41,10.70
2015,04,06,10,42,10.70
2015,04,06,10,43,10.70
2015,04,06,10,44,10.80
2015,04,06,10,45,10.80
2015,04,06,10,46,10.90
2015,04,06,10,47,10.90
2015,04,06,10,48,10.90
2015,04,06,10,49,10.90
2015,04,06,10,50,10.90
2015,04,06,10,51,10.90
2015,04,06,10,52,10.90
2015,04,06,10,53,11.00
2015,04,06,10,54,11.00
2015,04,06,10,55,11.00
2015,04,06,10,56,11.10
2015,04,06,10,57,11.10
2015,04,06,10,58,11.20
2015,04,06,10,59,11.20
2015,04,06,11,00,11.30
2015,04,06,11,01,11.40
2015,04,06,11,02,11.40
2015,04,06,11,03,11.40
2015,04,06,11,04,11.40
2015,04,06,11,05,11.40
2015,04,06,11,06,11.40
2015,04,06,11,07,11.40
2015,04,06,11,08,11.40
2015,04,06,11,09,11.40
2015,04,06,11,10,11.40
2015,04,06,11,11,11.40
2015,04,06,11,12,11.40
2015,04,06,11,13,11.40
2015,04,06,11,14,11.50
2015,04,06,11,15,11.50
2015,04,06,11,16,11.50
2015,04,06,11,17,11.60
2015,04,06,11,18,11.60
2015,04,06,11,19,11.60
2015,04,06,11,20,11.60
2015,04,06,11,21,11.60
2015,04,06,11,22,11.70
2015,04,06,11,23,11.70
2015,04,06,11,24,11.70
2015,04,06,11,25,11.80
2015,04,06,11,26,11.80
2015,04,06,11,27,11.80
2015,04,06,11,28,11.80
2015,04,06,11,29,11.80
2015,04,06,11,30,11.70
2015,04,06,11,31,11.60
2015,04,06,11,32,11.60
2015,04,06,11,33,11.50
2015,04,06,11,34,11.50
2015,04,06,11,35,11.50
2015,04,06,11,36,11.50
2015,04,06,11,37,11.50
2015,04,06,11,38,11.40
2015,04,06,11,39,11.40
2015,04,06,11,40,11.40
2015,04,06,11,41,11.40
2015,04,06,11,42,11.50
2015,04,06,11,43,11.50
2015,04,06,11,44,11.50
2015,04,06,11,45,11.60
2015,04,06,11,46,11.60
2015,04,06,11,47,11.70
2015,04,06,11,48,11.70
2015,04,06,11,49,11.70
2015,04,06,11,50,11.70
2015,04,06,11,51,11.70
2015,04,06,11,52,11.70
2015,04,06,11,53,11.70
2015,04,06,11,54,11.70
2015,04,06,11,55,11.70
2015,04,06,11,56,11.60
2015,04,06,11,57,11.60
2015,04,06,11,58,11.50
2015,04,06,11,59,11.50
2015,04,06,12,00,11.60
2015,04,06,12,01,11.60
2015,04,06,12,02,11.70
2015,04,06,12,03,11.70
2015,04,06,12,04,11.80
2015,04,06,12,05,11.80
2015,04,06,12,06,11.80
2015,04,06,12,07,11.80
2015,04,06,12,08,11.80
2015,04,06,12,09,11.80
2015,04,06,12,10,11.80
2015,04,06,12,11,11.80
2015,04,06,12,12,11.80
2015,04,06,12,13,11.80
2015,04,06,12,14,11.70
2015,04,06,12,15,11.70
2015,04,06,12,16,11.60
2015,04,06,12,17,11.40
2015,04,06,12,18,11.30
2015,04,06,12,19,11.20
2015,04,06,12,20,11.20
2015,04,06,12,21,11.20
2015,04,06,12,22,11.20
2015,04,06,12,23,11.30
2015,04,06,12,24,11.30
2015,04,06,12,25,11.30
2015,04,06,12,26,11.30
2015,04,06,12,27,11.40
2015,04,06,12,28,11.40
2015,04,06,12,29,11.40
2015,04,06,12,30,11.40
2015,04,06,12,31,11.30
2015,04,06,12,32,11.20
2015,04,06,12,33,11.10
2015,04,06,12,34,11.10
2015,04,06,12,35,11.00
2015,04,06,12,36,10.90
2015,04,06,12,37,10.90
2015,04,06,12,38,10.80
2015,04,06,12,39,10.80
2015,04,06,12,40,10.70
2015,04,06,12,41,10.80
2015,04,06,12,42,10.70
2015,04,06,12,43,10.70
2015,04,06,12,44,10.70
2015,04,06,12,45,10.80
2015,04,06,12,46,10.80
2015,04,06,12,47,10.80
2015,04,06,12,48,10.80
2015,04,06,12,49,10.80
2015,04,06,12,50,10.90
2015,04,06,12,51,10.90
2015,04,06,12,52,10.90
2015,04,06,12,53,10.90
2015,04,06,12,54,11.00
2015,04,06,12,55,11.00
2015,04,06,12,56,11.00
2015,04,06,12,57,11.10
2015,04,06,12,58,11.10
2015,04,06,12,59,11.10
2015,04,06,13,00,11.20
2015,04,06,13,01,11.20
2015,04,06,13,02,11.20
2015,04,06,13,03,11.30
2015,04,06,13,04,11.30
2015,04,06,13,05,11.30
2015,04,06,13,06,11.30
2015,04,06,13,07,11.40
2015,04,06,13,08,11.40
2015,04,06,13,09,11.40
2015,04,06,13,10,11.40
2015,04,06,13,11,11.40
2015,04,06,13,12,11.40
2015,04,06,13,13,11.50
2015,04,06,13,14,11.50
2015,04,06,13,15,11.50
2015,04,06,13,16,11.40
2015,04,06,13,17,11.30
2015,04,06,13,18,11.30
2015,04,06,13,19,11.30
2015,04,06,13,20,11.30
2015,04,06,13,21,11.40
2015,04,06,13,22,11.40
2015,04,06,13,23,11.40
2015,04,06,13,24,11.40
2015,04,06,13,25,11.50
2015,04,06,13,26,11.50
2015,04,06,13,27,11.60
2015,04,06,13,28,11.60
2015,04,06,13,29,11.70
2015,04,06,13,30,11.70
2015,04,06,13,31,11.70
2015,04,06,13,32,11.70
2015,04,06,13,33,11.70
2015,04,06,13,34,11.80
2015,04,06,13,35,11.80
2015,04,06,13,36,11.80
2015,04,06,13,37,11.80
2015,04,06,13,38,11.80
2015,04,06,13,39,11.80
2015,04,06,13,40,11.70
2015,04,06,13,41,11.70
2015,04,06,13,42,11.60
2015,04,06,13,43,11.60
2015,04,06,13,44,11.60
2015,04,06,13,45,11.60
2015,04,06,13,46,11.60
2015,04,06,13,47,11.60
2015,04,06,13,48,11.70
2015,04,06,13,49,11.70
2015,04,06,13,50,11.80
2015,04,06,13,51,11.80
2015,04,06,13,52,11.80
2015,04,06,13,53,11.80
2015,04,06,13,54,11.80
2015,04,06,13,55,11.80
2015,04,06,13,56,11.80
2015,04,06,13,57,11.80
2015,04,06,13,58,11.80
2015,04,06,13,59,11.90
2015,04,06,14,00,12.00
2015,04,06,14,01,12.10
2015,04,06,14,02,12.30
2015,04,06,14,03,12.30
2015,04,06,14,04,12.40
2015,04,06,14,05,12.40
2015,04,06,14,06,12.50
2015,04,06,14,07,12.60
2015,04,06,14,08,12.70
2015,04,06,14,09,12.80
2015,04,06,14,10,12.80
2015,04,06,14,11,12.90
2015,04,06,14,12,12.80
2015,04,06,14,13,12.80
2015,04,06,14,14,12.80
2015,04,06,14,15,12.80
2015,04,06,14,16,12.80
2015,04,06,14,17,12.80
2015,04,06,14,18,12.80
2015,04,06,14,19,12.80
2015,04,06,14,20,12.80
2015,04,06,14,21,12.90
2015,04,06,14,22,12.90
2015,04,06,14,23,13.00
2015,04,06,14,24,13.10
2015,04,06,14,25,13.20
2015,04,06,14,26,13.30
2015,04,06,14,27,13.30
2015,04,06,14,28,13.30
2015,04,06,14,29,13.30
2015,04,06,14,30,13.30
2015,04,06,14,31,13.30
2015,04,06,14,32,13.30
2015,04,06,14,33,13.20
2015,04,06,14,34,13.20
2015,04,06,14,35,13.10
2015,04,06,14,36,13.10
2015,04,06,14,37,13.00
2015,04,06,14,38,13.00
2015,04,06,14,39,12.90
2015,04,06,14,40,12.90
2015,04,06,14,41,12.90
2015,04,06,14,42,12.90
2015,04,06,14,43,12.90
2015,04,06,14,44,12.90
2015,04,06,14,45,12.90
2015,04,06,14,46,13.00
2015,04,06,14,47,13.10
2015,04,06,14,48,13.20
2015,04,06,14,49,13.30
2015,04,06,14,50,13.40
2015,04,06,14,51,13.50
2015,04,06,14,52,13.50
2015,04,06,14,53,13.60
2015,04,06,14,54,13.50
2015,04,06,14,55,13.50
2015,04,06,14,56,13.50
2015,04,06,14,57,13.50
2015,04,06,14,58,13.40
2015,04,06,14,59,13.40
2015,04,06,15,00,13.30
2015,04,06,15,01,13.20
2015,04,06,15,02,13.00
2015,04,06,15,03,12.90
2015,04,06,15,04,12.80
2015,04,06,15,05,12.70
2015,04,06,15,06,12.60
2015,04,06,15,07,12.50
2015,04,06,15,08,12.40
2015,04,06,15,09,12.40
2015,04,06,15,10,12.40
2015,04,06,15,11,12.40
2015,04,06,15,12,12.40
2015,04,06,15,13,12.40
2015,04,06,15,14,12.40
2015,04,06,15,15,12.40
2015,04,06,15,16,12.40
2015,04,06,15,17,12.40
2015,04,06,15,18,12.40
2015,04,06,15,19,12.40
2015,04,06,15,20,12.40
2015,04,06,15,21,12.40
2015,04,06,15,22,12.40
2015,04,06,15,23,12.50
2015,04,06,15,24,12.50
2015,04,06,15,25,12.60
2015,04,06,15,26,12.70
2015,04,06,15,27,12.70
2015,04,06,15,28,12.70
2015,04,06,15,29,12.70
2015,04,06,15,30,12.70
2015,04,06,15,31,12.60
2015,04,06,15,32,12.60
2015,04,06,15,33,12.50
2015,04,06,15,34,12.40
2015,04,06,15,35,12.40
2015,04,06,15,36,12.40
2015,04,06,15,37,12.50
2015,04,06,15,38,12.50
2015,04,06,15,39,12.50
2015,04,06,15,40,12.60
2015,04,06,15,41,12.60
2015,04,06,15,42,12.60
2015,04,06,15,43,12.60
2015,04,06,15,44,12.70
2015,04,06,15,45,12.70
2015,04,06,15,46,12.80
2015,04,06,15,47,12.80
2015,04,06,15,48,12.90
2015,04,06,15,49,12.90
2015,04,06,15,50,13.00
2015,04,06,15,51,13.10
2015,04,06,15,52,13.20
2015,04,06,15,53,13.30
2015,04,06,15,54,13.30
2015,04,06,15,55,13.30
2015,04,06,15,56,13.30
2015,04,06,15,57,13.20
2015,04,06,15,58,13.20
2015,04,06,15,59,13.20
2015,04,06,16,00,13.20
2015,04,06,16,01,13.20
2015,04,06,16,02,13.20
2015,04,06,16,03,13.20
2015,04,06,16,04,13.10
2015,04,06,16,05,13.10
2015,04,06,16,06,13.10
2015,04,06,16,07,13.10
2015,04,06,16,08,13.20
2015,04,06,16,09,13.20
2015,04,06,16,10,13.30
2015,04,06,16,11,13.50
2015,04,06,16,12,13.60
2015,04,06,16,13,13.70
2015,04,06,16,14,13.80
2015,04,06,16,15,13.80
2015,04,06,16,16,14.00
2015,04,06,16,17,14.00
2015,04,06,16,18,14.00
2015,04,06,16,19,13.90
2015,04,06,16,20,13.90
2015,04,06,16,21,13.90
2015,04,06,16,22,13.80
2015,04,06,16,23,13.80
2015,04,06,16,24,13.80
2015,04,06,16,25,13.80
2015,04,06,16,26,13.80
2015,04,06,16,27,13.70
2015,04,06,16,28,13.60
2015,04,06,16,29,13.50
2015,04,06,16,30,13.40
2015,04,06,16,31,13.40
2015,04,06,16,32,13.30
2015,04,06,16,33,13.30
2015,04,06,16,34,13.20
2015,04,06,16,35,13.20
2015,04,06,16,36,13.20
2015,04,06,16,37,13.30
2015,04,06,16,38,13.40
2015,04,06,16,39,13.50
2015,04,06,16,40,13.60
2015,04,06,16,41,13.70
2015,04,06,16,42,13.70
2015,04,06,16,43,13.70
2015,04,06,16,44,13.70
2015,04,06,16,45,13.70
2015,04,06,16,46,13.70
2015,04,06,16,47,13.80
2015,04,06,16,48,13.80
2015,04,06,16,49,13.80
2015,04,06,16,50,13.90
2015,04,06,16,51,13.90
2015,04,06,16,52,13.90
2015,04,06,16,53,13.80
2015,04,06,16,54,13.80
2015,04,06,16,55,13.80
2015,04,06,16,56,13.70
2015,04,06,16,57,13.70
2015,04,06,16,58,13.60
2015,04,06,16,59,13.60
2015,04,06,17,00,13.50
2015,04,06,17,01,13.40
2015,04,06,17,02,13.40
2015,04,06,17,03,13.30
2015,04,06,17,04,13.30
2015,04,06,17,05,13.20
2015,04,06,17,06,13.10
2015,04,06,17,07,13.10
2015,04,06,17,08,13.10
2015,04,06,17,09,13.00
2015,04,06,17,10,13.10
2015,04,06,17,11,13.10
2015,04,06,17,12,13.10
2015,04,06,17,13,13.00
2015,04,06,17,14,12.90
2015,04,06,17,15,12.80
2015,04,06,17,16,12.70
2015,04,06,17,17,12.60
2015,04,06,17,18,12.60
2015,04,06,17,19,12.60
2015,04,06,17,20,12.60
2015,04,06,17,21,12.60
2015,04,06,17,22,12.70
2015,04,06,17,23,12.60
2015,04,06,17,24,12.60
2015,04,06,17,25,12.60
2015,04,06,17,26,12.60
2015,04,06,17,27,12.60
2015,04,06,17,28,12.50
2015,04,06,17,29,12.50
2015,04,06,17,30,12.50
2015,04,06,17,31,12.40
2015,04,06,17,32,12.40
2015,04,06,17,33,12.40
2015,04,06,17,34,12.50
2015,04,06,17,35,12.60
2015,04,06,17,36,12.60
2015,04,06,17,37,12.70
2015,04,06,17,38,12.70
2015,04,06,17,39,12.70
2015,04,06,17,40,12.70
2015,04,06,17,41,12.60
2015,04,06,17,42,12.60
2015,04,06,17,43,12.50
2015,04,06,17,44,12.50
2015,04,06,17,45,12.50
2015,04,06,17,46,12.60